Regional Weather Roundup
Issued by NWS

Home | Current Version | Previous Version | Text Only | Print | Product List | Glossary On
Versions: 1 2 3 4 5 6 7 8 9 10 11 12 13 14 15 16 17 18 19 20 21 22 23 24 25 26 27 28 29 30 31 32 33 34 35 36 37 38 39 40 41 42 43 44 45 46 47 48 49 50
000
ASUS44 KLIX 281001
RWRLA
LOUISIANA WEATHER ROUNDUP
NATIONAL WEATHER SERVICE NEW ORLEANS LA
500 AM CDT THU AUG 28 2014

NOTE: "FAIR" INDICATES FEW OR NO CLOUDS BELOW 12,000 FEET WITH NO
      SIGNIFICANT WEATHER AND/OR OBSTRUCTIONS TO VISIBILITY.
      SKY/WX - SKY CONDITION AND SIGNIFICANT WEATHER.
      TMP - AIR TEMPERATURE.    DP   - DEWPOINT TEMPERATURE.
      RH  - RELATIVE HUMIDITY.  PRES - PRESSURE.
      HX  - HEAT INDEX.         WCI  - WIND CHILL INDEX.

*  THESE STATIONS ARE NOT NWS OR FAA STATIONS AND ARE NOT UNDER
   NWS QUALITY CONTROL.

LAZ040-048-061>063-065-066-069-281100-
SOUTHEAST LOUISIANA

CITY           SKY/WX    TMP DP  RH WIND       PRES   REMARKS
N.O. AUDUBON     N/A     81  76  84 MISG        N/A
N.O. INTL ARPT MOCLDY    79  74  84 E3        29.96S
N.O. LAKEFRONT PTCLDY    81  75  82 E3        29.97S
N.O. DOWNTOWN* PTSUNNY   82  72  69 CALM      29.97S
SLIDELL        CLOUDY    76  73  91 N3        29.97S
BATON ROUGE    MOCLDY    76  74  93 CALM      29.97S
BOOTHVILLE     PTCLDY    82  77  84 CALM      29.96S
BELLE CHASSE   MOCLDY    75  72  90 CALM      29.96S
BOGALUSA*        N/A     75  72  88 CALM      30.00S
GALLIANO*      NOT AVBL
NEW ROADS*     FAIR      75  74  98 CALM      29.97S FOG
GONZALES*      FAIR      76  76 100 CALM      29.96F
HAMMOND*       NOT AVBL
HOUMA*         CLOUDY    77  73  90 CALM      29.96S
PORT FOURCHON* MOSUNNY   84  72  65 E8        29.96F

$$

LAZ041-044-053-054-281100-
SOUTHWEST LOUISIANA

CITY           SKY/WX    TMP DP  RH WIND       PRES   REMARKS
LAKE CHARLES   PTCLDY    76  73  91 E5        29.94S
LAFAYETTE      PTCLDY    77  74  90 CALM      29.96S
PATTERSON        N/A     75  75 100 NE6       29.98S
SALT POINT       N/A     79  77  94 VRB3      29.94S
NEW IBERIA     MOCLDY    77  75  93 NE7       29.96S
CHENAULT AIRPK NOT AVBL

$$

LAZ027-028-281100-
CENTRAL LOUISIANA

CITY           SKY/WX    TMP DP  RH WIND       PRES   REMARKS
FORT POLK      CLEAR     73  71  93 CALM      29.96S
ALEXANDRIA INT CLEAR     73  72  96 CALM      29.95F
ALEXANDRIA     CLEAR     73  71  93 CALM      29.97S

$$

LAZ001-002-281100-
NORTHWEST LOUISIANA

CITY           SKY/WX    TMP DP  RH WIND       PRES   REMARKS
SHREVEPORT     PTCLDY    75  69  81 CALM      29.97S
BARKSDALE AFB  CLEAR     70  67  90 S3        29.97S
DTN SHREVEPORT CLEAR     74  69  85 CALM      29.97S

$$

LAZ014-016-281100-
NORTHEAST LOUISIANA

CITY           SKY/WX    TMP DP  RH WIND       PRES   REMARKS
MONROE         CLEAR     71  67  87 CALM      29.98F
TALLULAH       CLEAR     67  66  97 CALM      29.99S

$$



USA.gov is the U.S. government's official web portal to all federal, state and local government web resources and services.